Hourly Data Report for May 15, 2021

WIARTON A
ONTARIO
Current Station Operator: NAVCAN

44°44'39.000" N
81°06'31.000" W
221.90 m
6119499
71633
YVV

Download Data

Hourly Data (May 2021)
Hourly Data Report for May 15, 2021
TIME
LST
Temp Definition
°C
Dew Point Definition
°C
Rel Hum Definition
%
Precip. Amount Definition
mm

Wind Dir Definition
10's deg

Wind Spd Definition
km/h
Visibility Definition
km
Stn Press Definition
kPa
Hmdx Definition


Wind Chill Definition


Weather Definition


00:00 4.6 3.0 90   12 9 24.1 99.64     LegendNANA
01:00 4.4 2.9 90   36 3 24.1 99.66     Clear
02:00 3.7 3.0 95   19 6 24.1 99.67     LegendNANA
03:00 3.2 2.6 96   15 8 24.1 99.66     LegendNANA
04:00 2.9 2.0 94   13 8 24.1 99.68     Mainly Clear
05:00 2.8 1.7 93   13 9 24.1 99.70     LegendNANA
06:00 4.8 3.3 89   13 9 24.1 99.71     LegendNANA
07:00 11.2 4.0 61   17 5 24.1 99.74     Mainly Clear
08:00 14.1 1.4 42   24 5 24.1 99.76     LegendNANA
09:00 15.2 3.2 44   24 9 24.1 99.78     LegendNANA
10:00 17.0 0.8 33   25 8 24.1 99.80     Mostly Cloudy
11:00 18.9 2.8 34   36 2 24.1 99.79     LegendNANA
12:00 19.7 0.2 27   27 7 24.1 99.73     LegendNANA
13:00 19.7 3.0 33   29 9 24.1 99.69     Cloudy
14:00 19.7 2.1 31   35 5 24.1 99.65     LegendNANA
15:00 19.5 1.1 29   33 6 24.1 99.61     LegendNANA
16:00 19.6 4.7 37   31 4 24.1 99.59     Mainly Clear
17:00 17.4 4.1 41   1 4 24.1 99.57     LegendNANA
18:00 16.9 7.0 52   36 1 24.1 99.56     LegendNANA
19:00 14.3 5.8 56   31 3 24.1 99.53     Mainly Clear
20:00 11.5 5.1 64   36 2 24.1 99.54     LegendNANA
21:00 11.0 3.9 61   36 2 24.1 99.55     LegendNANA
22:00 7.9 6.3 90   10 5 24.1 99.56     Mainly Clear
23:00 8.1 5.3 83   8 4 24.1 99.57     LegendNANA

Notes on Data Quality.

Legend

  • E = Estimated
  • M = Missing
  • NA = Not Available*
  • [empty] = Indicates an unobserved value
Date modified: